GW1000 Weather Reports


time (UTC)temp
F
wind
direction
speed
knots
gust
knots
rain 1hr
in
rain 24hr
in
rain mn
in
humidity
%
barometer
mb
20260508141736 76 357 7.0 8.7 0.00 0.00 0.00 56 1010.9
20260508141234 76 344 7.8 9.6 0.00 0.00 0.00 56 1010.8
20260508140731 76 337 6.1 11.3 0.00 0.00 0.00 57 1010.8
20260508140227 76 348 7.8 11.3 0.00 0.00 0.00 56 1011.1
20260508135723 77 341 4.3 9.6 0.00 0.00 0.00 56 1010.9
20260508135219 77 342 7.8 8.7 0.00 0.00 0.00 54 1011.0
20260508134710 77 358 5.2 8.7 0.00 0.00 0.00 54 1011.0
20260508134207 78 21 1.7 7.8 0.00 0.00 0.00 51 1011.0
20260508133704 78 333 7.8 9.6 0.00 0.00 0.00 52 1010.9
20260508133202 77 353 7.0 9.6 0.00 0.00 0.00 53 1010.9
20260508132659 77 357 6.1 9.6 0.00 0.00 0.00 53 1011.0
20260508132156 77 270 6.1 12.2 0.00 0.00 0.00 51 1011.1
20260508131651 78 337 7.8 12.2 0.00 0.00 0.00 51 1011.0
20260508131148 78 351 5.2 11.3 0.00 0.00 0.00 51 1011.1
20260508130645 77 13 5.2 8.7 0.00 0.00 0.00 53 1011.1
20260508130142 77 324 9.6 11.3 0.00 0.00 0.00 54 1011.2
20260508125637 77 286 9.6 11.3 0.00 0.00 0.00 53 1011.2
20260508125134 77 287 7.8 9.6 0.00 0.00 0.00 55 1011.1
20260508124633 77 329 8.7 9.6 0.00 0.00 0.00 54 1011.2
20260508124129 77 332 10.4 13.0 0.00 0.00 0.00 55 1011.1
20260508123628 77 325 7.8 9.6 0.00 0.00 0.00 54 1011.3
20260508123125 77 21 3.5 9.6 0.00 0.00 0.00 53 1011.4
20260508122621 77 250 7.8 12.2 0.00 0.00 0.00 53 1011.5
20260508122118 77 347 10.4 13.0 0.00 0.00 0.00 54 1011.5
20260508121617 78 231 9.6 12.2 0.00 0.00 0.00 53 1011.4
20260508121114 77 349 4.3 11.3 0.00 0.00 0.00 54 1011.5
20260508120611 77 306 8.7 12.2 0.00 0.00 0.00 53 1011.6
20260508120110 77 326 10.4 15.6 0.00 0.00 0.00 54 1011.6
20260508115607 77 329 10.4 15.6 0.00 0.00 0.00 54 1011.6
20260508115103 76 354 9.6 14.8 0.00 0.00 0.00 58 1011.5
20260508114601 76 267 8.7 12.2 0.00 0.00 0.00 57 1011.7
20260508114056 77 277 7.0 15.6 0.00 0.00 0.00 57 1011.8
20260508113554 77 33 1.7 7.8 0.00 0.00 0.00 56 1011.7
20260508113052 77 271 7.8 14.8 0.00 0.00 0.00 56 1011.9
20260508112548 76 312 7.8 14.8 0.00 0.00 0.00 57 1012.0
20260508112045 78 0 7.8 12.2 0.00 0.00 0.00 56 1012.1
20260508111542 77 356 6.1 9.6 0.00 0.00 0.00 56 1012.1
20260508111039 76 276 11.3 15.6 0.00 0.00 0.00 58 1012.1
20260508110537 76 283 15.6 17.4 0.00 0.00 0.00 59 1012.0
20260508110033 76 343 7.8 18.2 0.00 0.00 0.00 59 1012.0
20260508105533 77 348 12.2 14.8 0.00 0.00 0.00 58 1012.0
20260508105030 77 341 13.0 15.6 0.00 0.00 0.00 59 1011.9
20260508104528 78 354 8.7 17.4 0.00 0.00 0.00 57 1011.7
20260508104024 78 286 7.0 9.6 0.00 0.00 0.00 57 1011.9
20260508103521 77 358 7.8 13.9 0.00 0.00 0.00 60 1012.0
20260508103019 77 346 4.3 9.6 0.00 0.00 0.00 60 1011.8
20260508102517 77 334 9.6 14.8 0.00 0.00 0.00 59 1011.9
20260508102014 78 30 6.1 11.3 0.00 0.00 0.00 58 1011.8
20260508101511 79 3 10.4 13.9 0.00 0.00 0.00 57 1011.8
20260508101008 79 320 10.4 11.3 0.00 0.00 0.00 54 1011.8
20260508100506 78 350 5.2 9.6 0.00 0.00 0.00 54 1011.9
20260508100003 79 308 7.0 8.7 0.00 0.00 0.00 50 1012.0
20260508095500 79 349 7.8 12.2 0.00 0.00 0.00 48 1012.1
20260508094957 80 258 7.0 11.3 0.00 0.00 0.00 48 1012.0
20260508094454 80 338 1.7 6.1 0.00 0.00 0.00 46 1012.2
20260508093950 79 11 2.6 9.6 0.00 0.00 0.00 48 1012.2
20260508093448 77 309 4.3 7.0 0.00 0.00 0.00 50 1012.3
20260508092945 78 169 7.8 13.0 0.00 0.00 0.00 49 1012.4
20260508092443 78 325 4.3 7.0 0.00 0.00 0.00 50 1012.5
20260508091941 77 277 6.1 7.0 0.00 0.00 0.00 51 1012.4
20260508091438 78 325 7.8 13.0 0.00 0.00 0.00 51 1012.5
20260508090935 76 346 7.0 11.3 0.00 0.00 0.00 52 1012.6
20260508090434 76 286 4.3 6.1 0.00 0.00 0.00 53 1013.0
20260508085929 77 345 4.3 8.7 0.00 0.00 0.00 53 1012.8
20260508085426 77 252 6.1 7.0 0.00 0.00 0.00 52 1012.7
20260508084923 76 306 5.2 7.0 0.00 0.00 0.00 53 1012.8
20260508084419 76 355 1.7 6.1 0.00 0.00 0.00 53 1012.9
20260508083918 74 254 0.9 5.2 0.00 0.00 0.00 57 1012.9
20260508083415 75 275 1.7 5.2 0.00 0.00 0.00 56 1013.0
20260508082914 75 94 1.7 5.2 0.00 0.00 0.00 56 1013.2
20260508082412 75 72 4.3 7.0 0.00 0.00 0.00 55 1013.0
20260508081910 75 281 4.3 5.2 0.00 0.00 0.00 57 1013.0
20260508081406 75 195 0.9 1.7 0.00 0.00 0.00 57 1013.3
20260508080902 75 193 0.9 4.3 0.00 0.00 0.00 58 1013.3
20260508080401 74 194 1.7 2.6 0.00 0.00 0.00 58 1013.5
20260508075857 73 303 0.0 4.3 0.00 0.00 0.00 61 1013.5
20260508075354 72 351 4.3 7.0 0.00 0.00 0.00 61 1013.5
20260508074852 72 74 2.6 2.6 0.00 0.00 0.00 61 1013.5
20260508074348 73 52 4.3 5.2 0.00 0.00 0.00 61 1013.5
20260508073845 72 357 1.7 4.3 0.00 0.00 0.00 62 1013.4
20260508073343 72 307 0.9 2.6 0.00 0.00 0.00 62 1013.7
20260508072835 71 344 0.9 5.2 0.00 0.00 0.00 64 1013.7
20260508072331 71 355 0.0 2.6 0.00 0.00 0.00 64 1013.7
20260508071828 70 33 0.9 4.3 0.00 0.00 0.00 65 1013.5
20260508071327 70 346 4.3 5.2 0.00 0.00 0.00 65 1013.5
20260508070824 70 84 0.0 4.3 0.00 0.00 0.00 65 1013.6
20260508070322 70 0 2.6 2.6 0.00 0.00 0.00 66 1013.6
20260508065819 69 32 2.6 2.6 0.00 0.00 0.00 67 1013.7
20260508065317 69 295 0.9 4.3 0.00 0.00 0.00 68 1013.8
20260508064815 69 37 1.7 2.6 0.00 0.00 0.00 68 1013.7
20260508064313 69 108 0.9 2.6 0.00 0.00 0.00 69 1013.6
20260508063810 68 345 2.6 4.3 0.00 0.00 0.00 70 1013.5
20260508063308 68 276 1.7 2.6 0.00 0.00 0.00 70 1013.8
20260508062805 68 261 3.5 4.3 0.00 0.00 0.00 70 1013.6
20260508062306 68 7 0.0 1.7 0.00 0.00 0.00 72 1013.6
20260508061759 67 7 0.9 2.6 0.00 0.00 0.00 74 1013.8
20260508061256 67 333 0.0 4.3 0.00 0.00 0.00 74 1013.6
20260508060753 67 4 1.7 4.3 0.00 0.00 0.00 75 1013.9
20260508060251 67 350 1.7 6.1 0.00 0.00 0.00 75 1013.9
20260508055746 67 11 0.9 1.7 0.00 0.00 0.00 75 1014.0
20260508055243 66 347 2.6 2.6 0.00 0.00 0.00 75 1014.0
20260508054739 67 124 0.9 0.9 0.00 0.00 0.00 76 1014.1
20260508054238 66 77 1.7 2.6 0.00 0.00 0.00 77 1014.0
20260508053734 66 65 2.6 2.6 0.00 0.00 0.00 77 1014.0
20260508053231 65 17 0.9 4.3 0.00 0.00 0.00 78 1014.1
20260508052728 66 9 0.9 4.3 0.00 0.00 0.00 77 1013.9
20260508052225 66 93 0.0 0.9 0.00 0.00 0.00 77 1013.9
20260508051722 65 84 0.9 0.9 0.00 0.00 0.00 79 1014.0
20260508051217 65 40 0.0 0.9 0.00 0.00 0.00 79 1013.9
20260508050714 64 38 0.9 1.7 0.00 0.00 0.00 80 1014.0
20260508050212 64 26 0.0 0.9 0.00 0.00 0.00 80 1014.0
20260508045711 64 64 0.0 0.9 0.00 0.00 0.00 81 1014.2
20260508045210 63 145 0.9 0.9 0.00 0.00 0.00 81 1014.1
20260508044707 62 45 0.9 0.9 0.00 0.00 0.00 82 1014.3
20260508044203 61 25 0.0 0.0 0.00 0.00 0.00 83 1014.3
20260508043659 60 20 0.0 0.9 0.00 0.00 0.00 84 1014.2
20260508043157 60 21 0.0 0.9 0.00 0.00 0.00 85 1014.0
20260508042654 59 347 0.9 0.9 0.00 0.00 0.00 85 1013.9
20260508042151 59 96 0.0 1.7 0.00 0.00 0.00 86 1013.8
20260508041647 58 189 0.9 2.6 0.00 0.00 0.00 87 1013.6
20260508041144 57 102 0.9 1.7 0.00 0.00 0.00 88 1013.9
20260508040641 57 72 1.7 2.6 0.00 0.00 0.00 88 1013.8
20260508040138 57 89 1.7 1.7 0.00 0.00 0.00 88 1013.8
20260508035635 57 31 0.0 0.9 0.00 0.00 0.00 89 1013.9
20260508035133 56 145 2.6 2.6 0.00 0.00 0.00 89 1013.3
20260508034630 56 56 0.0 0.9 0.00 0.00 0.00 89 1013.4
20260508034126 56 92 0.0 0.9 0.00 0.00 0.00 89 1013.5
20260508033624 55 58 0.0 1.7 0.00 0.00 0.00 90 1013.2
20260508033122 55 58 0.0 0.9 0.00 0.00 0.00 90 1013.0
20260508032618 55 141 0.9 1.7 0.00 0.00 0.00 90 1013.0
20260508032116 55 104 1.7 1.7 0.00 0.00 0.00 90 1013.1
20260508031613 55 59 0.0 0.9 0.00 0.00 0.00 90 1012.9
20260508031108 55 60 0.0 0.9 0.00 0.00 0.00 90 1013.2
20260508030605 55 189 1.7 2.6 0.00 0.00 0.00 90 1013.2
20260508030103 55 108 1.7 2.6 0.00 0.00 0.00 90 1013.0
20260508025559 55 118 0.0 0.0 0.00 0.00 0.00 89 1013.3
20260508025056 55 63 0.0 0.0 0.00 0.00 0.00 89 1013.1
20260508024552 54 80 0.0 0.0 0.00 0.00 0.00 89 1013.0
20260508024050 55 84 0.0 0.9 0.00 0.00 0.00 89 1013.0
20260508023546 55 123 0.0 0.9 0.00 0.00 0.00 89 1013.1
20260508023043 55 38 0.0 0.9 0.00 0.00 0.00 89 1013.1
20260508022539 55 87 0.9 0.9 0.00 0.00 0.00 89 1012.8
20260508022036 55 80 0.0 0.0 0.00 0.00 0.00 89 1012.9
20260508021532 55 352 0.0 0.0 0.00 0.00 0.00 89 1012.7
20260508021028 55 31 0.0 0.9 0.00 0.00 0.00 89 1012.7
20260508020526 55 128 1.7 2.6 0.00 0.00 0.00 89 1012.5
20260508020023 55 59 0.0 0.9 0.00 0.00 0.00 89 1012.6
20260508015521 55 68 0.0 0.9 0.00 0.00 0.00 88 1012.4
20260508015018 55 178 0.9 1.7 0.00 0.00 0.00 89 1012.6
20260508014514 55 165 1.7 1.7 0.00 0.00 0.00 88 1012.6
20260508014010 55 34 0.0 0.9 0.00 0.00 0.00 88 1012.6
20260508013501 55 150 0.9 0.9 0.00 0.00 0.00 88 1012.6
20260508012958 55 188 0.0 0.9 0.00 0.00 0.00 88 1012.8
20260508012455 55 130 1.7 2.6 0.00 0.00 0.00 88 1012.8
20260508011953 55 112 2.6 2.6 0.00 0.00 0.00 88 1013.0
20260508011450 55 144 0.9 0.9 0.00 0.00 0.00 88 1012.7
20260508010947 55 76 0.0 0.0 0.00 0.00 0.00 87 1013.0
20260508010444 55 60 0.0 0.9 0.00 0.00 0.00 87 1012.9
20260508005942 55 70 0.0 0.0 0.00 0.00 0.00 87 1013.2
20260508005438 55 79 0.0 0.0 0.00 0.00 0.00 87 1013.1
20260508004934 55 70 0.0 0.0 0.00 0.00 0.00 87 1013.3
20260508004431 56 72 0.0 0.9 0.00 0.00 0.00 87 1013.3
20260508003927 56 91 1.7 2.6 0.00 0.00 0.00 87 1013.3
20260508003424 56 134 2.6 2.6 0.00 0.00 0.00 86 1013.2
20260508002921 56 111 0.9 2.6 0.00 0.00 0.00 86 1013.5
20260508002418 56 78 0.0 2.6 0.00 0.00 0.00 86 1013.4
20260508001914 56 57 0.0 0.0 0.00 0.00 0.00 86 1013.5
20260508001410 57 40 0.0 1.7 0.00 0.00 0.00 86 1013.3
20260508000907 56 30 0.0 0.9 0.00 0.00 0.00 86 1013.3
20260508000405 57 108 0.9 1.7 0.00 0.00 0.00 86 1013.2
20260507235900 56 157 0.9 1.7 0.00 0.00 0.00 86 1013.4
20260507235357 57 119 0.9 2.6 0.00 0.00 0.00 86 1013.3
20260507234854 56 51 0.9 1.7 0.00 0.00 0.00 86 1013.2
20260507234351 56 72 0.0 0.9 0.00 0.00 0.00 86 1013.4
20260507233848 56 114 1.7 4.3 0.00 0.00 0.00 86 1013.4
20260507233345 56 159 2.6 5.2 0.00 0.00 0.00 86 1013.3
20260507232843 57 82 2.6 4.3 0.00 0.00 0.00 86 1013.3
20260507232339 57 55 0.0 2.6 0.00 0.00 0.00 87 1013.4
20260507231837 56 82 0.0 0.0 0.00 0.00 0.00 87 1013.5
20260507231333 56 154 0.9 0.9 0.00 0.00 0.00 87 1013.5
20260507230829 55 128 0.9 0.9 0.00 0.00 0.00 87 1013.5
20260507230322 55 53 0.0 0.0 0.00 0.00 0.00 87 1013.6
20260507225821 55 82 0.0 0.0 0.00 0.00 0.00 87 1013.6
20260507225317 56 117 0.0 0.9 0.00 0.00 0.00 87 1013.6
20260507224813 56 93 1.7 1.7 0.00 0.00 0.00 87 1013.7
20260507224310 56 64 0.0 0.9 0.00 0.00 0.00 86 1013.8
20260507223807 56 19 0.0 0.9 0.00 0.00 0.00 86 1014.0
20260507223303 56 70 0.0 2.6 0.00 0.00 0.00 86 1013.6
20260507222801 56 69 1.7 2.6 0.00 0.00 0.00 86 1014.1
20260507222256 56 27 0.0 0.0 0.00 0.00 0.00 86 1014.1
20260507221754 56 57 0.0 0.9 0.00 0.00 0.00 86 1013.8
20260507221250 56 48 0.9 1.7 0.00 0.00 0.00 86 1014.1
20260507220746 56 31 0.0 0.9 0.00 0.00 0.00 86 1014.1
20260507220245 56 113 0.0 1.7 0.00 0.00 0.00 86 1014.0
20260507215741 56 73 0.0 0.0 0.00 0.00 0.00 86 1014.1
20260507215238 56 58 0.0 0.9 0.00 0.00 0.00 86 1014.2
20260507214735 56 66 0.0 0.0 0.00 0.00 0.00 86 1014.1
20260507214232 56 40 0.0 0.0 0.00 0.00 0.00 86 1014.1
20260507213727 56 43 0.0 0.0 0.00 0.00 0.00 86 1014.0
20260507213224 56 44 0.0 0.0 0.00 0.00 0.00 86 1013.9
20260507212720 56 46 0.0 0.0 0.00 0.00 0.00 85 1014.0
20260507212217 57 55 0.0 0.9 0.00 0.00 0.00 86 1013.7
20260507211714 56 37 0.0 0.0 0.00 0.00 0.00 85 1014.0
20260507211210 57 43 0.0 0.0 0.00 0.00 0.00 85 1013.6
20260507210707 57 56 0.9 1.7 0.00 0.00 0.00 86 1013.6
20260507210204 57 32 0.0 0.0 0.00 0.00 0.00 85 1013.6
20260507205700 57 32 0.0 0.0 0.00 0.00 0.00 85 1013.7
20260507205157 57 32 0.0 0.0 0.00 0.00 0.00 85 1013.5
20260507204653 57 32 0.0 0.0 0.00 0.00 0.00 85 1013.4
20260507204151 58 32 0.0 0.0 0.00 0.00 0.00 84 1013.4
20260507203649 58 32 0.0 0.0 0.00 0.00 0.00 84 1013.2
20260507203146 58 32 0.0 0.0 0.00 0.00 0.00 84 1013.4
20260507202641 58 32 0.0 0.0 0.00 0.00 0.00 84 1013.2
20260507202138 58 32 0.0 0.0 0.00 0.00 0.00 84 1013.1
20260507201633 58 32 0.0 0.0 0.00 0.00 0.00 84 1013.0
20260507201130 59 28 0.0 0.0 0.00 0.00 0.00 84 1013.0
20260507200626 59 28 0.0 0.0 0.00 0.00 0.00 83 1013.2
20260507200122 59 28 0.0 0.0 0.00 0.00 0.00 83 1013.0
20260507195620 59 27 0.0 0.9 0.00 0.00 0.00 83 1012.8
20260507195117 59 28 0.0 0.0 0.00 0.00 0.00 83 1013.0
20260507194613 59 28 0.0 0.0 0.00 0.00 0.00 82 1013.0
20260507194109 59 28 0.0 0.0 0.00 0.00 0.00 82 1013.0
20260507193606 59 28 0.0 0.0 0.00 0.00 0.00 81 1012.7
20260507193103 60 28 0.0 0.0 0.00 0.00 0.00 81 1012.9
20260507192559 60 28 0.0 0.0 0.00 0.00 0.00 81 1012.9
20260507192056 60 28 0.0 0.9 0.00 0.00 0.00 81 1013.0
20260507191551 60 28 0.0 0.0 0.00 0.00 0.00 81 1013.2
20260507191049 61 28 0.0 0.0 0.00 0.00 0.00 81 1013.2
20260507190546 61 28 0.0 0.0 0.00 0.00 0.00 80 1013.0
20260507190045 61 13 0.0 0.9 0.00 0.00 0.00 80 1013.3
20260507185543 61 15 0.9 0.9 0.00 0.00 0.00 80 1013.1
20260507185039 61 14 0.0 0.9 0.00 0.00 0.00 80 1013.0
20260507184537 61 17 0.0 0.9 0.00 0.00 0.00 79 1013.1
20260507184035 62 24 0.0 0.9 0.00 0.00 0.00 79 1013.1
20260507183531 62 26 0.0 0.9 0.00 0.00 0.00 79 1013.2
20260507183028 62 31 0.0 0.9 0.00 0.00 0.00 79 1013.1
20260507182524 62 41 0.0 1.7 0.00 0.00 0.00 79 1013.1
20260507182020 62 5 0.0 0.0 0.00 0.00 0.00 78 1013.3
20260507181517 62 4 0.9 0.9 0.00 0.00 0.00 78 1013.1
20260507181014 62 359 0.9 1.7 0.00 0.00 0.00 78 1013.0
20260507180510 63 341 2.6 2.6 0.00 0.00 0.00 77 1012.8
20260507180007 63 353 1.7 4.3 0.00 0.00 0.00 77 1013.0
20260507175503 63 356 2.6 4.3 0.00 0.00 0.00 77 1012.7
20260507175000 63 324 2.6 4.3 0.00 0.00 0.00 76 1012.8
20260507174458 63 353 1.7 2.6 0.00 0.00 0.00 76 1012.9
20260507173955 63 0 2.6 4.3 0.00 0.00 0.00 75 1012.9
20260507173452 64 358 1.7 2.6 0.00 0.00 0.00 75 1012.8
20260507172949 64 0 2.6 2.6 0.00 0.00 0.00 74 1012.8
20260507172445 64 13 1.7 5.2 0.00 0.00 0.00 74 1012.6
20260507171942 64 341 2.6 4.3 0.00 0.00 0.00 73 1012.4
20260507171437 64 11 1.7 5.2 0.00 0.00 0.00 73 1012.7
20260507170935 65 349 4.3 5.2 0.00 0.00 0.00 72 1012.5
20260507170431 65 351 1.7 5.2 0.00 0.00 0.00 71 1012.5
20260507165928 65 332 5.2 5.2 0.00 0.00 0.00 70 1012.4
20260507165424 65 2 2.6 5.2 0.00 0.00 0.00 70 1012.5
20260507164920 66 7 2.6 5.2 0.00 0.00 0.00 69 1012.2
20260507164417 66 5 3.5 5.2 0.00 0.00 0.00 68 1012.3
20260507163914 66 19 3.5 5.2 0.00 0.00 0.00 67 1012.3
20260507163412 66 36 4.3 7.0 0.00 0.00 0.00 66 1012.2
20260507162908 67 346 5.2 6.1 0.00 0.00 0.00 64 1012.3
20260507162403 67 335 3.5 5.2 0.00 0.00 0.00 63 1012.2
20260507161901 67 32 4.3 7.0 0.00 0.00 0.00 62 1012.3
20260507161357 67 27 2.6 9.6 0.00 0.00 0.00 61 1012.2
20260507160854 68 8 4.3 11.3 0.00 0.00 0.00 60 1012.2
20260507160349 68 359 4.3 9.6 0.00 0.00 0.00 59 1012.0
20260507155846 69 342 2.6 6.1 0.00 0.00 0.00 57 1012.1
20260507155342 69 358 6.1 11.3 0.00 0.00 0.00 56 1012.0
20260507154839 69 63 1.7 7.8 0.00 0.00 0.00 55 1012.0
20260507154336 69 339 6.1 13.0 0.00 0.00 0.00 55 1012.0
20260507153833 70 349 8.7 11.3 0.00 0.00 0.00 55 1012.0
20260507153329 70 326 4.3 6.1 0.00 0.00 0.00 55 1012.2
20260507152826 70 21 3.5 11.3 0.00 0.00 0.00 54 1012.1
20260507152322 70 40 4.3 7.8 0.00 0.00 0.00 54 1012.3
20260507151818 70 10 4.3 11.3 0.00 0.00 0.00 53 1012.0
20260507151315 70 17 6.1 13.9 0.00 0.00 0.00 55 1012.2
20260507150812 71 337 8.7 12.2 0.00 0.00 0.00 55 1012.3
20260507150308 71 6 4.3 7.8 0.00 0.00 0.00 55 1012.1
20260507145805 71 13 5.2 13.0 0.00 0.00 0.00 55 1012.2
20260507145301 71 334 8.7 17.4 0.00 0.00 0.00 58 1012.2
20260507144758 71 39 4.3 12.2 0.00 0.00 0.00 56 1012.0
20260507144256 71 5 7.0 13.9 0.00 0.00 0.00 56 1012.1
20260507143752 71 357 7.0 13.0 0.00 0.00 0.00 56 1012.1
20260507143249 71 338 13.0 15.6 0.00 0.00 0.00 55 1011.9
20260507142745 71 275 7.8 12.2 0.00 0.00 0.00 55 1011.9
20260507142242 72 3 3.5 8.7 0.00 0.00 0.00 54 1011.9